When you browse on this site, cookies collect data to enhance your experience and personalize the content and advertising you see.
Visit our Privacy Policy to learn more. By continuing to use the site, you agree to this use of cookies and data.
  • In Latvia
  • List of Countries
  • For 7 days
  • Water Temperature
  • Satellite Maps
  • Weather Map
  • Weather Widgets
  • user-avatar
    Login

    Hourly Weather Djelfa

    Today, 27 March, Wednesday

    Time Temperature Precipitation Wind Pressure Humidity
    00:00 +8°C° 0.3 mm 5 mps 662 mmHg 86%
    01:00 +7°C° 0.3 mm 5 mps 662 mmHg 85%
    02:00 +7°C° 0.3 mm 5 mps 662 mmHg 83%
    03:00 +6°C° 0.3 mm 5 mps 662 mmHg 82%
    04:00 +6°C° 0.2 mm 5 mps 662 mmHg 81%
    05:00 +5°C° 0.2 mm 5 mps 662 mmHg 81%
    06:00 +5°C° 0.2 mm 4 mps 662 mmHg 80%
    07:00 +5°C° 0.3 mm 5 mps 662 mmHg 79%
    08:00 +5°C° 0.3 mm 5 mps 662 mmHg 77%
    09:00 +5°C° 0.3 mm 5 mps 663 mmHg 76%
    10:00 +5°C° 0.5 mm 5 mps 663 mmHg 73%
    11:00 +5°C° 0.5 mm 5 mps 663 mmHg 70%
    12:00 +5°C° 0.5 mm 5 mps 663 mmHg 67%
    13:00 +5°C° 1.1 mm 4 mps 663 mmHg 65%
    14:00 +5°C° 1.1 mm 4 mps 663 mmHg 64%
    15:00 +5°C° 1.1 mm 3 mps 663 mmHg 62%
    16:00 +5°C° 0.7 mm 3 mps 663 mmHg 62%
    17:00 +7°C° 0.7 mm 2 mps 663 mmHg 62%
    18:00 +7°C° 0.7 mm 2 mps 664 mmHg 63%
    19:00 +6°C° 0 mm 2 mps 664 mmHg 64%
    20:00 +6°C° 0 mm 2 mps 664 mmHg 65%
    21:00 +6°C° 0 mm 2 mps 665 mmHg 66%
    22:00 +6°C° 0 mm 2 mps 665 mmHg 70%
    23:00 +5°C° 0 mm 2 mps 665 mmHg 74%

    Tomorrow, 28 March, Thursday

    Time Temperature Precipitation Wind Pressure Humidity
    00:00 +5°C° 0 mm 2 mps 666 mmHg 77%
    01:00 +4°C° 0 mm 2 mps 665 mmHg 82%
    02:00 +4°C° 0 mm 2 mps 665 mmHg 86%
    03:00 +3°C° 0 mm 2 mps 665 mmHg 91%
    04:00 +3°C° 0 mm 2 mps 665 mmHg 92%
    05:00 +3°C° 0 mm 2 mps 665 mmHg 93%
    06:00 +2°C° 0 mm 2 mps 665 mmHg 93%
    07:00 +4°C° 0 mm 2 mps 666 mmHg 83%
    08:00 +4°C° 0 mm 3 mps 666 mmHg 73%
    09:00 +7°C° 0 mm 3 mps 667 mmHg 62%
    10:00 +8°C° 0 mm 3 mps 667 mmHg 56%
    11:00 +10°C° 0 mm 3 mps 667 mmHg 49%
    12:00 +11°C° 0 mm 3 mps 667 mmHg 42%
    13:00 +11°C° 0 mm 3 mps 667 mmHg 39%
    14:00 +12°C° 0 mm 3 mps 667 mmHg 37%
    15:00 +12°C° 0 mm 3 mps 666 mmHg 34%
    16:00 +12°C° 0 mm 3 mps 666 mmHg 36%
    17:00 +11°C° 0 mm 4 mps 666 mmHg 38%
    18:00 +11°C° 0 mm 4 mps 666 mmHg 40%
    19:00 +10°C° 0 mm 3 mps 667 mmHg 44%
    20:00 +9°C° 0 mm 3 mps 667 mmHg 48%
    21:00 +8°C° 0 mm 3 mps 668 mmHg 53%
    22:00 +8°C° 0 mm 2 mps 667 mmHg 58%
    23:00 +7°C° 0 mm 2 mps 667 mmHg 64%

    Day after tomorrow, 29 March, Friday

    Time Temperature Precipitation Wind Pressure Humidity
    00:00 +7°C° 0 mm 2 mps 667 mmHg 69%
    01:00 +7°C° 0 mm 1 mps 667 mmHg 71%
    02:00 +7°C° 0 mm 1 mps 667 mmHg 72%
    03:00 +6°C° 0 mm 1 mps 667 mmHg 73%
    04:00 +6°C° 0 mm 1 mps 667 mmHg 73%
    05:00 +6°C° 0 mm 1 mps 667 mmHg 73%
    06:00 +6°C° 0 mm 1 mps 667 mmHg 72%
    07:00 +7°C° 0 mm 2 mps 667 mmHg 63%
    08:00 +9°C° 0 mm 3 mps 668 mmHg 54%
    09:00 +11°C° 0 mm 4 mps 669 mmHg 45%
    10:00 +12°C° 0 mm 4 mps 669 mmHg 42%
    11:00 +12°C° 0 mm 4 mps 669 mmHg 39%
    12:00 +13°C° 0 mm 4 mps 669 mmHg 36%
    13:00 +14°C° 0 mm 4 mps 668 mmHg 35%
    14:00 +14°C° 0 mm 4 mps 668 mmHg 34%
    15:00 +15°C° 0 mm 4 mps 667 mmHg 32%
    16:00 +14°C° 0 mm 4 mps 667 mmHg 33%
    17:00 +14°C° 0 mm 4 mps 667 mmHg 34%
    18:00 +13°C° 0 mm 4 mps 667 mmHg 35%
    19:00 +13°C° 0 mm 5 mps 667 mmHg 36%
    20:00 +12°C° 0 mm 5 mps 668 mmHg 37%
    21:00 +10°C° 0 mm 6 mps 668 mmHg 38%
    22:00 +10°C° 0 mm 6 mps 668 mmHg 41%
    23:00 +9°C° 0 mm 6 mps 668 mmHg 43%

    30 March, Saturday

    Time Temperature Precipitation Wind Pressure Humidity
    00:00 +9°C° 0 mm 7 mps 668 mmHg 45%
    01:00 +8°C° 0 mm 6 mps 668 mmHg 48%
    02:00 +8°C° 0 mm 6 mps 667 mmHg 51%
    03:00 +7°C° 0 mm 6 mps 667 mmHg 54%
    04:00 +7°C° 0 mm 6 mps 667 mmHg 56%
    05:00 +6°C° 0 mm 5 mps 667 mmHg 58%
    06:00 +6°C° 0 mm 5 mps 667 mmHg 61%
    07:00 +7°C° 0 mm 5 mps 668 mmHg 55%
    08:00 +9°C° 0 mm 6 mps 668 mmHg 50%
    09:00 +11°C° 0 mm 6 mps 668 mmHg 44%
    10:00 +12°C° 0 mm 7 mps 668 mmHg 41%
    11:00 +14°C° 0 mm 7 mps 668 mmHg 37%
    12:00 +15°C° 0 mm 7 mps 668 mmHg 34%
    13:00 +15°C° 0 mm 7 mps 668 mmHg 33%
    14:00 +16°C° 0 mm 7 mps 667 mmHg 32%
    15:00 +16°C° 0 mm 7 mps 667 mmHg 31%
    16:00 +15°C° 0 mm 7 mps 667 mmHg 33%
    17:00 +14°C° 0 mm 7 mps 666 mmHg 35%
    18:00 +14°C° 0 mm 7 mps 666 mmHg 37%
    19:00 +12°C° 0 mm 7 mps 666 mmHg 38%
    20:00 +11°C° 0 mm 8 mps 667 mmHg 39%
    21:00 +11°C° 0 mm 8 mps 667 mmHg 39%
    22:00 +10°C° 0 mm 8 mps 667 mmHg 41%
    23:00 +10°C° 0 mm 8 mps 666 mmHg 43%

    31 March, Sunday

    Time Temperature Precipitation Wind Pressure Humidity
    00:00 +10°C° 0 mm 8 mps 666 mmHg 45%
    01:00 +9°C° 0.5 mm 8 mps 665 mmHg 50%
    02:00 +7°C° 0.5 mm 9 mps 665 mmHg 55%
    03:00 +7°C° 0.5 mm 9 mps 664 mmHg 60%
    04:00 +6°C° 0.9 mm 9 mps 664 mmHg 61%
    05:00 +6°C° 0.9 mm 8 mps 664 mmHg 61%
    06:00 +6°C° 0.9 mm 8 mps 664 mmHg 62%
    07:00 +6°C° 1.3 mm 9 mps 664 mmHg 62%
    08:00 +6°C° 1.3 mm 9 mps 664 mmHg 61%
    09:00 +6°C° 1.3 mm 9 mps 664 mmHg 61%
    10:00 +7°C° 0.4 mm 10 mps 664 mmHg 57%
    11:00 +8°C° 0.4 mm 10 mps 664 mmHg 52%
    12:00 +9°C° 0.4 mm 10 mps 663 mmHg 48%
    13:00 +9°C° 0.3 mm 10 mps 663 mmHg 52%
    14:00 +8°C° 0.3 mm 10 mps 662 mmHg 55%
    15:00 +7°C° 0.3 mm 10 mps 661 mmHg 59%
    16:00 +7°C° 0 mm 10 mps 661 mmHg 59%
    17:00 +7°C° 0 mm 9 mps 660 mmHg 58%
    18:00 +7°C° 0 mm 8 mps 660 mmHg 58%
    19:00 +6°C° 0 mm 8 mps 660 mmHg 60%
    20:00 +6°C° 0 mm 8 mps 660 mmHg 61%
    21:00 +6°C° 0 mm 8 mps 661 mmHg 63%
    22:00 +6°C° 0 mm 8 mps 660 mmHg 62%
    23:00 +6°C° 0 mm 8 mps 660 mmHg 62%

    1 April, Monday

    Time Temperature Precipitation Wind Pressure Humidity
    00:00 +6°C° 0 mm 7 mps 659 mmHg 62%
    01:00 +5°C° 0.1 mm 6 mps 659 mmHg 65%
    02:00 +6°C° 0.1 mm 5 mps 659 mmHg 69%
    03:00 +7°C° 0.1 mm 3 mps 659 mmHg 72%
    04:00 +7°C° 0 mm 2 mps 659 mmHg 74%
    05:00 +6°C° 0 mm 2 mps 659 mmHg 76%
    06:00 +7°C° 0 mm 1 mps 659 mmHg 79%
    07:00 +9°C° 0 mm 1 mps 659 mmHg 72%
    08:00 +9°C° 0 mm 2 mps 660 mmHg 65%
    09:00 +11°C° 0 mm 3 mps 661 mmHg 59%
    10:00 +12°C° 0 mm 4 mps 661 mmHg 58%
    11:00 +13°C° 0 mm 5 mps 661 mmHg 57%
    12:00 +14°C° 0 mm 5 mps 661 mmHg 57%
    13:00 +14°C° 0 mm 6 mps 661 mmHg 58%
    14:00 +13°C° 0 mm 6 mps 660 mmHg 59%
    15:00 +13°C° 0 mm 6 mps 660 mmHg 61%
    16:00 +11°C° 0 mm 6 mps 660 mmHg 64%
    17:00 +11°C° 0 mm 6 mps 660 mmHg 67%
    18:00 +10°C° 0 mm 5 mps 660 mmHg 71%
    19:00 +9°C° 0 mm 5 mps 661 mmHg 75%
    20:00 +9°C° 0 mm 5 mps 661 mmHg 79%
    21:00 +8°C° 0 mm 4 mps 661 mmHg 83%
    22:00 +8°C° 0 mm 4 mps 661 mmHg 85%
    23:00 +7°C° 0 mm 4 mps 661 mmHg 87%
    Show more